Location: ????????
(48.4751°N, 37.6926°E)
Time: 13:10:47
(UTC+00:00)

Aureole 2 Rocket - Pass Details

Date: 20 January 2021
Orbit: 285 x 374 km, 73.9° (Epoch: 27 February)

Event Time Altitude Azimuth Distance (km) Brightness Sun altitude
Rises 15:02:52 0° 161° (SSE) 2,207 5.9 -8.9°
Reaches altitude 10° 15:05:27 10° 135° (SE) 1,387 4.6 -9.3°
Maximum altitude 15:07:12 14° 100° (E) 1,173 4.0 -9.6°
Enters shadow 15:07:50 14° 86° (E) 1,212 4.0 -9.7°
